Salida, CO

1:40 AM MDT on June 25, 2017 (GMT -0600)
Salida

Weather History for KANK - July, 2013

Change the Weather History Date:

Thursday, July 18, 2013

  Actual Average (KGUC) Record (KGUC)
Temperature  
Mean Temperature 72 °F -  
Max Temperature 86 °F 77 °F 91 °F (2003)
Min Temperature 57 °F 44 °F 42 °F (1997)
Cooling Degree Days 6    
Growing Degree Days 22 (Base 50)    
Moisture  
Dew Point 50 °F    
Average Humidity 61    
Maximum Humidity 94    
Minimum Humidity 21    
Precipitation  
Precipitation 0.00 in - - ()
Sea Level Pressure  
Sea Level Pressure 30.45 in    
Wind  
Wind Speed 6 mph (NW)    
Max Wind Speed 15 mph    
Max Gust Speed 26 mph    
Visibility 10 miles    
Events      
Averages and records for this station are not official NWS values.
T = Trace of Precipitation, MM = Missing Value Source: NWS Daily Summary

Daily Weather History Graph

Daily Weather History Graph

Search for Another Location

Airport or City:

Trip Planner

Search our weather history database for the weather conditions in past years. The results will help you decide how hot, cold, wet, or windy it might be!

Date:

Astronomy

Jul. 18, 2013 Rise Set
Actual Time 5:54 AM MDT 8:25 PM MDT
Civil Twilight 5:23 AM MDT 8:56 PM MDT
Nautical Twilight 4:45 AM MDT 9:34 PM MDT
Astronomical Twilight 4:03 AM MDT 10:16 PM MDT
Moon 4:26 PM MDT (7/18) 1:46 AM MDT (7/18)
Length of Visible Light 15h 32m
Length of Day
14h 31m
Waxing Gibbous, 78% of the Moon is Illuminated
Jul 18
Waxing Gibbous
Jul 22
Full
Jul 29
Last Quarter
Aug 6
New
Aug 14
First Quarter

Hourly Weather History & Observations

Time (MDT) Temp. Dew Point Humidity Pressure Visibility Wind Dir Wind Speed Gust Speed Precip Events Conditions
12:15 AM 64.9 °F 47.1 °F 52% 30.48 in 10.0 mi West 11.5 mph 18.4 mph N/A   Clear
12:35 AM 65.3 °F 46.6 °F 51% 30.47 in 10.0 mi SSW 6.9 mph - N/A   Clear
12:55 AM 61.9 °F 48.7 °F 62% 30.47 in 10.0 mi Calm Calm - N/A   Clear
1:15 AM 59.9 °F 49.3 °F 68% 30.47 in 10.0 mi South 5.8 mph - N/A   Clear
1:35 AM 60.3 °F 49.1 °F 67% 30.47 in 10.0 mi South 3.5 mph - N/A   Clear
1:55 AM 62.6 °F 47.7 °F 58% 30.46 in 10.0 mi Calm Calm - N/A   Clear
2:15 AM 60.3 °F 48.2 °F 64% 30.46 in 10.0 mi Calm Calm - N/A   Clear
2:35 AM 60.4 °F 48.7 °F 65% 30.45 in 10.0 mi SW 3.5 mph - N/A   Clear
2:55 AM 60.8 °F 48.4 °F 64% 30.45 in 10.0 mi SW 3.5 mph - N/A   Clear
3:15 AM 59.9 °F 48.2 °F 65% 30.45 in 10.0 mi Calm Calm - N/A   Clear
3:35 AM 61.0 °F 47.7 °F 62% 30.44 in 10.0 mi NNW 6.9 mph - N/A   Clear
3:55 AM 61.9 °F 46.9 °F 58% 30.45 in 10.0 mi North 8.1 mph - N/A   Clear
4:15 AM 61.2 °F 47.8 °F 62% 30.45 in 10.0 mi North 8.1 mph - N/A   Clear
4:35 AM 60.3 °F 48.2 °F 64% 30.45 in 10.0 mi North 5.8 mph - N/A   Clear
4:55 AM 60.3 °F 48.0 °F 64% 30.45 in 10.0 mi NW 5.8 mph - N/A   Clear
5:15 AM 59.4 °F 48.6 °F 67% 30.45 in 10.0 mi North 6.9 mph - N/A   Clear
5:35 AM 59.5 °F 48.7 °F 67% 30.45 in 10.0 mi North 5.8 mph - N/A   Clear
5:55 AM 59.2 °F 48.4 °F 67% 30.45 in 10.0 mi NNE 3.5 mph - N/A   Clear
6:15 AM 59.9 °F 48.2 °F 65% 30.46 in 10.0 mi North 4.6 mph - N/A   Clear
6:35 AM 60.4 °F 48.4 °F 64% 30.45 in 10.0 mi North 5.8 mph - N/A   Clear
6:55 AM 61.5 °F 49.1 °F 64% 30.46 in 10.0 mi NNW 9.2 mph - N/A   Clear
7:15 AM 61.9 °F 48.7 °F 62% 30.46 in 10.0 mi NNW 9.2 mph - N/A   Clear
7:35 AM 63.1 °F 49.5 °F 61% 30.46 in 10.0 mi North 9.2 mph - N/A   Clear
7:55 AM 64.8 °F 50.0 °F 59% 30.46 in 10.0 mi North 9.2 mph - N/A   Clear
8:15 AM 66.6 °F 50.2 °F 56% 30.46 in 10.0 mi North 5.8 mph - N/A   Clear
8:35 AM 69.3 °F 49.3 °F 49% 30.46 in 10.0 mi West 5.8 mph - N/A   Clear
8:55 AM 70.7 °F 49.5 °F 47% 30.46 in 10.0 mi Calm Calm - N/A   Scattered Clouds
9:15 AM 70.7 °F 49.5 °F 47% 30.45 in 10.0 mi North 5.8 mph - N/A   Scattered Clouds
9:35 AM 73.6 °F 47.7 °F 40% 30.45 in 10.0 mi Calm Calm - N/A   Scattered Clouds
9:55 AM 73.4 °F 48.2 °F 41% 30.44 in 10.0 mi NNE 5.8 mph - N/A   Scattered Clouds
10:15 AM 75.4 °F 47.7 °F 37% 30.44 in 10.0 mi Calm Calm - N/A   Scattered Clouds
10:35 AM 75.0 °F 46.9 °F 37% 30.43 in 10.0 mi Calm Calm - N/A   Scattered Clouds
10:55 AM 78.3 °F 46.4 °F 32% 30.42 in 10.0 mi Calm Calm - N/A   Scattered Clouds
11:15 AM 79.5 °F 45.7 °F 30% 30.41 in 10.0 mi NNE 3.5 mph - N/A   Clear
11:35 AM 81.9 °F 46.0 °F 28% 30.40 in 10.0 mi North 5.8 mph - N/A   Clear
11:55 AM 82.4 °F 46.2 °F 28% 30.39 in 10.0 mi WSW 5.8 mph - N/A   Clear
12:15 PM 84.7 °F 46.0 °F 26% 30.38 in 10.0 mi SSW 8.1 mph - N/A   Clear
12:35 PM 82.6 °F 45.9 °F 28% 30.38 in 10.0 mi SE 6.9 mph - N/A   Scattered Clouds
12:55 PM 81.5 °F 45.5 °F 28% 30.37 in 10.0 mi ESE 6.9 mph 16.1 mph N/A   Clear
1:15 PM 80.4 °F 45.9 °F 30% 30.37 in 10.0 mi SE 4.6 mph - N/A   Clear
1:35 PM 85.6 °F 42.1 °F 22% 30.35 in 10.0 mi SSE 8.1 mph - N/A   Clear
1:55 PM 86.2 °F 43.7 °F 23% 30.34 in 10.0 mi SE 9.2 mph - N/A   Clear
2:15 PM 85.8 °F 45.9 °F 25% 30.34 in 10.0 mi SE 10.4 mph - N/A   Clear
2:35 PM 86.9 °F 42.6 °F 21% 30.33 in 10.0 mi ESE 10.4 mph 18.4 mph N/A   Clear
2:55 PM 86.9 °F 43.3 °F 22% 30.33 in 10.0 mi ESE 13.8 mph 20.7 mph N/A   Scattered Clouds
3:15 PM 86.4 °F 43.9 °F 23% 30.32 in 10.0 mi SSE 15.0 mph 20.7 mph N/A   Scattered Clouds
4:15 PM 68.4 °F 53.4 °F 59% 30.39 in 10.0 mi NW 15.0 mph 26.5 mph N/A   Overcast
4:35 PM 64.6 °F 54.5 °F 70% 30.41 in 10.0 mi WNW 15.0 mph 25.3 mph N/A   Overcast
4:55 PM 65.3 °F 55.9 °F 72% 30.44 in 10.0 mi NW 10.4 mph - N/A   Overcast
5:15 PM 63.3 °F 57.0 °F 80% 30.46 in 10.0 mi WNW 10.4 mph 16.1 mph N/A   Overcast
5:35 PM 62.4 °F 57.2 °F 83% 30.47 in 10.0 mi NW 13.8 mph 19.6 mph N/A   Overcast
5:55 PM 61.7 °F 57.0 °F 85% 30.49 in 10.0 mi NW 6.9 mph - N/A   Overcast
6:15 PM 61.0 °F 56.8 °F 86% 30.49 in 10.0 mi North 8.1 mph - N/A   Overcast
6:35 PM 60.4 °F 56.5 °F 87% 30.50 in 7.0 mi Calm Calm - N/A   Overcast
6:55 PM 60.3 °F 55.4 °F 84% 30.50 in 5.0 mi Calm Calm - N/A   Overcast
7:15 PM 59.7 °F 55.6 °F 86% 30.50 in 4.0 mi WNW 8.1 mph - N/A   Overcast
7:35 PM 59.0 °F 55.4 °F 88% 30.50 in 5.0 mi NW 10.4 mph - N/A   Overcast
7:55 PM 58.5 °F 55.8 °F 91% 30.49 in 5.0 mi WNW 12.7 mph - N/A   Overcast
8:15 PM 58.5 °F 55.0 °F 88% 30.51 in 10.0 mi Calm Calm - N/A   Overcast
8:35 PM 59.0 °F 55.6 °F 88% 30.52 in 10.0 mi North 9.2 mph - N/A   Overcast
8:55 PM 58.5 °F 55.0 °F 88% 30.52 in 10.0 mi NNW 5.8 mph - N/A   Overcast
9:15 PM 58.3 °F 54.9 °F 88% 30.54 in 10.0 mi Calm Calm - N/A   Overcast
9:35 PM 58.1 °F 54.7 °F 88% 30.54 in 10.0 mi Calm Calm - N/A   Overcast
9:55 PM 58.3 °F 54.5 °F 87% 30.54 in 10.0 mi West 3.5 mph - N/A   Overcast
10:15 PM 58.5 °F 55.8 °F 91% 30.54 in 10.0 mi Calm Calm - N/A   Mostly Cloudy
10:35 PM 58.6 °F 55.8 °F 90% 30.54 in 10.0 mi Calm Calm - N/A   Scattered Clouds
10:55 PM 57.6 °F 55.8 °F 94% 30.53 in 10.0 mi North 3.5 mph - N/A   Clear
11:15 PM 58.1 °F 55.4 °F 91% 30.52 in 10.0 mi NW 4.6 mph - N/A   Scattered Clouds
11:35 PM 58.1 °F 54.7 °F 88% 30.50 in 10.0 mi WSW 5.8 mph - N/A   Scattered Clouds
11:55 PM 58.1 °F 55.8 °F 92% 30.50 in 10.0 mi West 3.5 mph - N/A   Mostly Cloudy